Location: ???? ???? ?????
(31.2680°N, 31.7283°E)
Time: 19:57:47
(UTC+00:00)

Nadezhda 3 Rocket - Pass Details

Date: 13 July 2020
Orbit: 957 x 999 km, 82.9° (Epoch: 06 August)

Event Time Altitude Azimuth Distance (km) Brightness Sun altitude
Rises 19:35:17 0° 357° (N) 3,712 7.9 -26.9°
Reaches altitude 10° 19:37:51 10° 359° (N) 2,755 7.0 -27.2°
Maximum altitude 19:44:09 71° 83° (E) 1,037 3.9 -28.0°
Enters shadow 19:44:20 70° 96° (E) 1,039 3.9 -28.0°
